Regional Weather Roundup
Issued by NWS Newport/Morehead, NC

Current Version | Previous Version | Graphics & Text | Print | Product List | Glossary On
Versions: 1 2 3 4 5 6 7 8 9 10 11 12 13 14 15 16 17 18 19 20 21 22 23 24 25 26 27 28 29 30 31 32 33 34 35 36 37 38 39 40 41 42 43 44 45 46 47 48 49 50
255 ASUS42 KMHX 100013 RWRMHX WEATHER ROUNDUP FOR EASTERN NORTH CAROLINA NATIONAL WEATHER SERVICE NEWPORT/MOREHEAD CITY NC 700 PM EST TUE FEB 09 2016 NOTE: "FAIR" INDICATES FEW OR NO CLOUDS BELOW 12,000 FEET WITH NO SIGNIFICANT WEATHER AND/OR OBSTRUCTIONS TO VISIBILITY NCZ015>017-031-032-045>047-102-103-100100- NORTH COAST CITY SKY/WX TMP DP RH WIND PRES REMARKS EDENTON CLOUDY 41 34 74 W9 29.71R ELIZABETH CITY CLOUDY 39 32 76 W12 29.70R KITTY HAWK MOCLDY 41 33 73 W14G23 29.68R MANTEO PTCLDY 40 34 78 W14G24 29.70R $$ NCZ045>047-081-094-103-104-100100- CENTRAL COAST CITY SKY/WX TMP DP RH WIND PRES REMARKS FRISCO PTCLDY 45 29 53 W16G29 29.71R SWANQUARTER N/A 43 N/A N/A CALM 29.71R $$ NCZ095-097-098-100-101-100100- SOUTHERN COAST CITY SKY/WX TMP DP RH WIND PRES REMARKS BEAUFORT CLOUDY 44 27 51 W21G26 29.76R CEDAR ISLAND N/A 43 N/A N/A SW10G22 29.77S JACKSONVILLE CLOUDY 42 25 50 W13G22 29.77R PINEY ISLAND CLOUDY N/A N/A N/A W20G26 29.74R WILMINGTON PTCLDY 41 23 48 W18G29 29.81R $$ NCZ011>013-027>030-043-044-078>080-089-090>093-098-100100- COASTAL PLAIN CITY SKY/WX TMP DP RH WIND PRES REMARKS AHOSKIE CLOUDY 39 24 53 NW6 29.71R CLINTON PTCLDY 40 25 53 W7 29.79R ELIZABETHTOWN CLOUDY 40 24 53 SW10 29.80R GOLDSBORO CLOUDY 41 21 45 W10 29.75R GREENVILLE CLOUDY 41 23 48 W13G21 29.77R HAVELOCK CLOUDY 43 26 51 W16 29.76R KENANSVILLE CLOUDY 40 23 49 W9G18 29.78R KINSTON CLOUDY 41 21 45 SW9 29.76R NEW BERN CLOUDY 43 24 47 W13G20 29.76R RICHLANDS CLOUDY 43 21 42 SW12G20 29.78R ROCKY MOUNT CLOUDY 38 26 62 SW6 29.74R WASHINGTON CLOUDY 41 24 50 W14 29.73R WHITEVILLE CLOUDY 41 24 50 SW7 29.82R $$ AMZ130-135-150-152-154-156-158-170-250-252-270-ANZ085-086-088-633-658-670-100100- MARINE OBSERVATIONS STATION/POSITION TIME TEMP WIND PRES WAVE SWELL AIR SEA DIR/SP/G HT/PER HT/PER (UTC) (F) (DEG/KT/KT) (MB) (FT/S) (FT/S) CHESAPEAKE LIGHT 0000 44 310/ 10/ 11 1004.6 64 E VA BEACH 2350 46 50 250/ 19/ 27 1002.9 10/13 8/13 DUCK 2300 42 230/ 17/ 25 1003.6 2 E DUCK 2311 45 N/A 6/13 5/13 OREGON INLET 2300 42 45 280/ 9/ 11 1004.4 13E OREGON INLT 0000 47 N/A 9/13 7/13 HATTERAS CG 2300 46 52 260/ 22/ 26 1004.4 DIAMOND BUOY 2350 49 74 280/ 25/ 33 1005.2 10/14 8/14 CAPE LOOKOUT NOT AVBL BEAUFORT LAB 2300 45 47 280/ 5/ 11 1005.3 30 SE NEW RVR IN 2308 48 59 1006.7 30 SE NEW RVR IN 2325 59 N/A 9/ 8 3/15 27 SE WRIGHTSVLE NOT AVBL 5 SE WRIGHTSVLE 2308 45 52 280/ 23/ 29 1008.3 225 S CAPE HAT 2350 58 69 270/ 31/ 41 N/A 17/10 8/15 41 SE CHARLESTON 2350 48 65 270/ 25/ 31 1010.5 9/ 8 2/14 $$

USA.gov is the U.S. government's official web portal to all federal, state and local government web resources and services.